Regional Weather Roundup
Issued by NWS

Home | Current Version | Previous Version | Graphics & Text | Print | Product List | Glossary On
Versions: 1 2 3 4 5 6 7 8 9 10 11 12 13 14 15 16 17 18 19 20 21 22 23 24 25 26 27 28 29 30 31 32 33 34 35 36 37 38 39 40 41 42 43 44 45 46 47 48 49 50
000
ASUS43 KDTX 240010
RWRMI
MICHIGAN HOURLY REGIONAL WEATHER ROUNDUP
NATIONAL WEATHER SERVICE DETROIT/PONTIAC MI
800 PM EDT TUE SEP 23 2014

NOTE: "FAIR" INDICATES FEW OR NO CLOUDS BELOW 12,000 FEET WITH NO
SIGNIFICANT WEATHER AND/OR OBSTRUCTION TO VISIBILITY.

MIZ047>049-052>055-059>063-066>070-074>076-081>083-240100-
SOUTHEAST LOWER MICHIGAN

CITY           SKY/WX    TMP DP  RH WIND       PRES   REMARKS
ADRIAN         CLEAR     63  50  62 CALM      30.32S
6HR MIN TEMP:  62; 6HR MAX TEMP:  73;

ALMA           CLEAR     59  55  88 CALM      30.31S
ANN ARBOR      CLEAR     57  51  80 E6        30.32S
BAD AXE        CLEAR     58  56  92 CALM      30.32S
6HR MIN TEMP:  58; 6HR MAX TEMP:  71;

DETROIT CITY   CLEAR     65  48  54 S6        30.34R
6HR MIN TEMP:  65; 6HR MAX TEMP:  73;

DETROIT        PTCLDY    61  50  67 SE3       30.33S
6HR MIN TEMP:  61; 6HR MAX TEMP:  71;

FLINT          CLEAR     66  53  63 S5        30.32R
6HR MIN TEMP:  65; 6HR MAX TEMP:  75;

GROSSE ILE     CLEAR     61  52  72 E3        30.32F
HILLSDALE      CLEAR     58  55  87 CALM      30.32S
6HR MIN TEMP:  58; 6HR MAX TEMP:  72;

HOWELL         CLEAR     62  51  66 CALM      30.32S HAZE
6HR MIN TEMP:  62; 6HR MAX TEMP:  71;


CITY           SKY/WX    TMP DP  RH WIND       PRES   REMARKS
JACKSON        CLEAR     60  52  74 CALM      30.32S
6HR MIN TEMP:  60; 6HR MAX TEMP:  73;

LAMBERTVILLE   CLEAR     59  54  82 CALM      30.33S
LANSING        CLEAR     63  53  70 CALM      30.31S
6HR MIN TEMP:  63; 6HR MAX TEMP:  73; 6HR PCP: TRACE;

LAPEER         NOT AVBL
MASON          CLEAR     59  53  80 CALM      30.31S
MONROE         CLEAR     57  54  88 CALM      30.31F
MT. CLEMENS    CLEAR     59  51  74 SE5       30.32R
6HR MIN TEMP:  59; 6HR MAX TEMP:  71;

PONTIAC        CLEAR     62  52  69 CALM      30.32S
6HR MIN TEMP:  62; 6HR MAX TEMP:  71;

PORT HOPE        N/A     60  57  89 CALM      30.30R
6HR MIN TEMP:  60; 6HR MAX TEMP:  73;

PORT HURON     CLEAR     55  54  94 CALM      30.34R
TRI CITIES     CLEAR     64  54  69 S5        30.31R
6HR MIN TEMP:  63; 6HR MAX TEMP:  75;

YPSILANTI      CLEAR     62  51  67 SE7       30.33S
6HR MIN TEMP:  62; 6HR MAX TEMP:  75;

$$
MIZ043>046-050>051-056>058-064>065-071>073-077>080-240100-
SOUTHWEST LOWER MICHIGAN

CITY           SKY/WX    TMP DP  RH WIND       PRES   REMARKS
BATTLE CREEK   CLEAR     65  51  60 CALM      30.32R
6HR MIN TEMP:  65; 6HR MAX TEMP:  72;

BENTON HARBOR  CLEAR     55  50  83 CALM      30.30S
6HR MIN TEMP:  55; 6HR MAX TEMP:  66;

BIG RAPIDS     CLEAR     60  58  91 SW3       30.30R
6HR MIN TEMP:  60; 6HR MAX TEMP:  73;

COLDWATER      CLEAR     61  53  75 CALM      30.31S
6HR MIN TEMP:  60; 6HR MAX TEMP:  74;

HOLLAND        CLEAR     59  52  77 CALM      30.32R
6HR MIN TEMP:  59; 6HR MAX TEMP:  70;

GRAND RAPIDS   CLEAR     64  53  67 W5        30.31S
6HR MIN TEMP:  64; 6HR MAX TEMP:  74;

KALAMAZOO      CLEAR     62  51  67 N5        30.31S
6HR MIN TEMP:  62; 6HR MAX TEMP:  73;

MARSHALL       CLEAR     60  52  75 CALM      30.31S
MUSKEGON       CLEAR     60  53  77 S5        30.31R
6HR MIN TEMP:  60; 6HR MAX TEMP:  68;

$$
MIZ016>042-240100-
NORTHERN LOWER MICHIGAN

CITY           SKY/WX    TMP DP  RH WIND       PRES   REMARKS
ALPENA         CLEAR     58  53  84 SE6       30.31R
6HR MIN TEMP:  58; 6HR MAX TEMP:  76;

BEAVER ISLAND  CLEAR     59  55  88 CALM      30.28S
6HR MIN TEMP:  59; 6HR MAX TEMP:  67;

BELLAIRE       CLEAR     60  57  89 CALM      30.29R
6HR MIN TEMP:  60; 6HR MAX TEMP:  74;

CADILLAC       CLEAR     60  56  89 CALM      30.30R
CHARLEVOIX     CLEAR     61  56  85 CALM      30.32S
6HR MIN TEMP:  61; 6HR MAX TEMP:  69;

FRANKFORT      CLEAR     58  53  83 CALM      30.28S
GAYLORD        CLEAR     64  53  67 NW3       30.31R
6HR MIN TEMP:  64; 6HR MAX TEMP:  71;

GRAYLING       CLEAR     60  58  93 CALM      30.31R
6HR MIN TEMP:  59; 6HR MAX TEMP:  75;

HARBOR SPRINGS CLEAR     60  54  80 CALM      30.29S
HOUGHTON LAKE  CLEAR     60  56  86 CALM      30.30S
6HR MIN TEMP:  60; 6HR MAX TEMP:  73;

MANISTEE       CLEAR     61  52  72 CALM      30.29S
OSCODA         CLEAR     62  55  76 S3        30.28S
PELLSTON       CLEAR     58  54  86 CALM      30.29S
6HR MIN TEMP:  58; 6HR MAX TEMP:  71;

TRAVERSE CITY  PTCLDY    63  55  75 CALM      30.27S
6HR MIN TEMP:  63; 6HR MAX TEMP:  74;

$$
MIZ007>008-015-240100-
EASTERN UPPER MICHIGAN

CITY           SKY/WX    TMP DP  RH WIND       PRES   REMARKS
KINROSS        CLEAR     64  55  72 S3        30.28R
6HR MIN TEMP:  64; 6HR MAX TEMP:  73;

MACKINAC ISLAN CLEAR     59  54  84 SW8       30.28S
6HR MIN TEMP:  59; 6HR MAX TEMP:  64;

NEWBERRY       CLEAR     59  54  82 S5        30.26S
S. S. MARIE    CLEAR     60  53  77 CALM      30.27R
6HR MIN TEMP:  60; 6HR MAX TEMP:  72;

$$
MIZ004>006-011>014-085-240100-
CENTRAL UPPER MICHIGAN

CITY           SKY/WX    TMP DP  RH WIND       PRES   REMARKS
MANISTIQUE     CLEAR     58  56  94 S6        30.26S
ESCANABA       CLEAR     61  54  77 S6        30.24S
6HR MIN TEMP:  61; 6HR MAX TEMP:  70;

MENOMINEE      CLEAR     64  54  68 S8        30.24S
6HR MIN TEMP:  64; 6HR MAX TEMP:  73;

SAWYER-GWINN   CLEAR     68  55  64 SE6       30.24R
$$
MIZ001>003-009>011-084-240100-
WESTERN UPPER MICHIGAN

CITY           SKY/WX    TMP DP  RH WIND       PRES   REMARKS
IRON MOUNTAIN  CLEAR     64  55  72 S5        30.22S
6HR MIN TEMP:  64; 6HR MAX TEMP:  77;

HOUGHTON       CLEAR     57  50  77 E6        30.21S
6HR MIN TEMP:  57; 6HR MAX TEMP:  73;

COPPER HARBOR    N/A     58  50  75 VRB3      30.21S
6HR MIN TEMP:  58; 6HR MAX TEMP:  63;

IRONWOOD       CLEAR     68  50  52 S5        30.17S
6HR MIN TEMP:  68; 6HR MAX TEMP:  73;

$$

ABBREVIATIONS USED IN REMARKS
   TC - TEMPERATURE IN CELSIUS
  WCI - WIND CHILL INDEX
   HX - HEAT INDEX
  VSB - VISIBILITY



USA.gov is the U.S. government's official web portal to all federal, state and local government web resources and services.